Worcester, MA

10:31 PM EDT on September 16, 2019 (GMT -0400)
Worcester Regional

Weather History for KORH - August, 2019

Change the Weather History Date:

Sunday, August 25, 2019

  Actual Average Record
Temperature  
Mean Temperature 60 °F 68 °F  
Max Temperature 68 °F 76 °F 92 °F (1947)
Min Temperature 52 °F 59 °F 40 °F (1940)
Degree Days  
Heating Degree Days 5 1  
Month to date heating degree days 6 16  
Since 1 June heating degree days 58 113  
Since 1 July heating degree days 7 30  
Cooling Degree Days 0 4  
Month to date cooling degree days 143 124  
Year to date cooling degree days 499 405  
Since 1 June cooling degree days 490 383  
Growing Degree Days 10 (Base 50)    
Moisture  
Dew Point 52 °F    
Average Humidity 78    
Maximum Humidity 100    
Minimum Humidity 52    
Precipitation  
Precipitation 0.00 in 0.11 in 1.37 in (1945)
Month to date precipitation 2.14 3.07  
Year to date precipitation 33.66 30.72  
Sea Level Pressure  
Sea Level Pressure 30.32 in    
Wind  
Wind Speed 7 mph ()    
Max Wind Speed 15 mph    
Max Gust Speed 23 mph    
Visibility 10.0 miles    
Events      
T = Trace of Precipitation, MM = Missing Value Source: Averaged Metar Reports

Daily Weather History Graph

Daily Weather History Graph

Search for Another Location

Airport or City:

Astronomy

Aug. 25, 2019 Rise Set
Actual Time 6:05 AM EDT 7:33 PM EDT
Civil Twilight 5:35 AM EDT 8:02 PM EDT
Nautical Twilight 5:00 AM EDT 8:37 PM EDT
Astronomical Twilight 4:22 AM EDT 9:15 PM EDT
Moon 12:34 AM EDT (8/25) 3:55 PM EDT (8/25)
Length of Visible Light 14h 26m
Length of Day
13h 28m
Waning Crescent, 29% of the Moon is Illuminated
Aug 25
Waning Crescent
Aug 30
New
Sep 5
First Quarter
Sep 14
Full
Sep 21
Last Quarter

Hourly Weather History & Observations

Time (EDT) Temp. Dew Point Humidity Pressure Visibility Wind Dir Wind Speed Gust Speed Precip Events Conditions
12:54 AM 57.9 °F 55.0 °F 90% 30.31 in 10.0 mi North 5.8 mph - N/A   Clear
1:54 AM 57.0 °F 55.0 °F 93% 30.31 in 10.0 mi North 5.8 mph - N/A   Clear
2:54 AM 55.9 °F 55.0 °F 97% 30.30 in 10.0 mi NNE 6.9 mph - N/A   Clear
4:12 AM 55.9 °F 55.0 °F 97% 30.30 in 10.0 mi NNE 9.2 mph - N/A   Mostly Cloudy
4:54 AM 55.9 °F 55.0 °F 97% 30.31 in 10.0 mi NNE 6.9 mph - N/A   Overcast
5:10 AM 55.9 °F 55.0 °F 97% 30.31 in 10.0 mi NNE 8.1 mph - N/A   Overcast
5:54 AM 57.0 °F 55.0 °F 93% 30.31 in 10.0 mi NNE 8.1 mph - N/A   Overcast
6:08 AM 55.9 °F 55.0 °F 97% 30.31 in 10.0 mi North 6.9 mph - N/A   Mostly Cloudy
6:54 AM 57.0 °F 55.9 °F 96% 30.32 in 10.0 mi NNE 6.9 mph - N/A   Partly Cloudy
7:10 AM 57.0 °F 55.9 °F 96% 30.32 in 10.0 mi NNE 9.2 mph - N/A   Mostly Cloudy
7:54 AM 57.9 °F 55.9 °F 93% 30.34 in 10.0 mi NE 8.1 mph - N/A   Overcast
8:28 AM 59.0 °F 55.0 °F 87% 30.34 in 10.0 mi NNE 12.7 mph 18.4 mph N/A   Overcast
8:38 AM 60.1 °F 55.0 °F 83% 30.34 in 10.0 mi Variable 6.9 mph - N/A   Overcast
8:54 AM 60.1 °F 54.0 °F 80% 30.35 in 10.0 mi NNE 12.7 mph 19.6 mph N/A   Overcast
9:14 AM 60.1 °F 53.1 °F 78% 30.34 in 10.0 mi NE 11.5 mph 19.6 mph N/A   Overcast
9:41 AM 62.1 °F 53.1 °F 72% 30.35 in 10.0 mi NNE 11.5 mph 20.7 mph N/A   Scattered Clouds
9:54 AM 62.1 °F 51.1 °F 67% 30.35 in 10.0 mi NE 11.5 mph 20.7 mph N/A   Partly Cloudy
10:54 AM 64.0 °F 50.0 °F 60% 30.35 in 10.0 mi ENE 10.4 mph 18.4 mph N/A   Scattered Clouds
11:54 AM 64.0 °F 51.1 °F 63% 30.35 in 10.0 mi NE 8.1 mph 19.6 mph N/A   Mostly Cloudy
12:54 PM 64.0 °F 51.1 °F 63% 30.35 in 10.0 mi ENE 11.5 mph 18.4 mph N/A   Overcast
1:54 PM 64.0 °F 53.1 °F 67% 30.34 in 10.0 mi NE 10.4 mph - N/A   Overcast
2:54 PM 64.9 °F 52.0 °F 63% 30.32 in 10.0 mi ENE 8.1 mph - N/A   Mostly Cloudy
3:54 PM 66.0 °F 52.0 °F 60% 30.31 in 10.0 mi NE 8.1 mph - N/A   Scattered Clouds
4:54 PM 66.0 °F 48.9 °F 54% 30.30 in 10.0 mi NNE 12.7 mph - N/A   Partly Cloudy
5:54 PM 63.0 °F 46.9 °F 56% 30.30 in 10.0 mi ENE 9.2 mph - N/A   Clear
6:54 PM 60.1 °F 44.1 °F 55% 30.30 in 10.0 mi ENE 10.4 mph 19.6 mph N/A   Clear
7:54 PM 57.0 °F 44.1 °F 62% 30.31 in 10.0 mi NE 4.6 mph - N/A   Clear
8:54 PM 55.0 °F 44.1 °F 67% 30.32 in 10.0 mi NNE 5.8 mph - N/A   Clear
9:54 PM 54.0 °F 45.0 °F 72% 30.32 in 10.0 mi NNE 8.1 mph - N/A   Clear
10:54 PM 52.0 °F 45.0 °F 77% 30.31 in 10.0 mi NNE 6.9 mph - N/A   Clear
11:54 PM 52.0 °F 46.9 °F 83% 30.29 in 10.0 mi North 8.1 mph - N/A   Clear